This is the latest recevied weather packets stored in our database for station/object KI7JYE. If no packets are shown the sender has not sent any weather packets the latest 10 day(s).
| Time | Temp. | Humidity | Pressure | Rain* | Wind** | Luminosity | Snow |
|---|---|---|---|---|---|---|---|
| 1777822821 | 17.22° C | 80% | 1010.4 hPa | 0 mm | - | 314 W/m² | - |
| 1777822520 | 17.22° C | 79% | 1010.6 hPa | 0 mm | - | 298 W/m² | - |
| 1777822217 | 17.22° C | 79% | 1010.7 hPa | 0 mm | - | 271 W/m² | - |
| 1777821914 | 16.67° C | 81% | 1010.6 hPa | 0 mm | - | 260 W/m² | - |
| 1777821612 | 15.56° C | 84% | 1010.5 hPa | 0 mm | - | 252 W/m² | - |
| 1777821310 | 15.56° C | 84% | 1010.6 hPa | 0 mm | - | 134 W/m² | - |
| 1777821006 | 15.56° C | 86% | 1010.5 hPa | 0 mm | - | 171 W/m² | - |
| 1777820703 | 15.56° C | 87% | 1010.7 hPa | 0 mm | - | 204 W/m² | - |
| 1777820398 | 15° C | 89% | 1010.8 hPa | 0 mm | - | 156 W/m² | - |
| 1777820096 | 14.44° C | 89% | 1010.7 hPa | 0 mm | - | 101 W/m² | - |
| 1777819793 | 13.89° C | 91% | 1010.5 hPa | 0 mm | - | 96 W/m² | - |
| 1777819491 | 13.89° C | 93% | 1010.6 hPa | 0 mm | - | 118 W/m² | - |
| 1777819189 | 13.33° C | 92% | 1010.5 hPa | 0 mm | - | 76 W/m² | - |
| 1777818885 | 13.33° C | 92% | 1010.6 hPa | 0 mm | - | 66 W/m² | - |
| 1777818581 | 13.33° C | 92% | 1010.5 hPa | 0 mm | - | 65 W/m² | - |
| 1777818279 | 13.33° C | 95% | 1010.6 hPa | 0 mm | - | 60 W/m² | - |
| 1777817975 | 12.78° C | 96% | 1010.5 hPa | 0 mm | - | 55 W/m² | - |
| 1777817673 | 12.22° C | 98% | 1010.6 hPa | 0 mm | - | 49 W/m² | - |
| 1777817369 | 12.22° C | 98% | 1010.3 hPa | 0 mm | - | 46 W/m² | - |
| 1777817066 | 11.67° C | 99% | 1010.5 hPa | 0 mm | - | 31 W/m² | - |
| 1777816762 | 11.11° C | 99% | 1010.4 hPa | 0 mm | - | 27 W/m² | - |
| 1777816460 | 11.11° C | 99% | 1010.3 hPa | 0 mm | - | 24 W/m² | - |
| 1777816157 | 11.11° C | 99% | 1010.2 hPa | 0 mm | - | 23 W/m² | - |
| 1777815855 | 10.56° C | 99% | 1010.1 hPa | 0 mm | - | 20 W/m² | - |
| 1777815552 | 10.56° C | 99% | 1010.4 hPa | 0 mm | - | 19 W/m² | - |
* Rain latest hour (hover to see other rain measurements)
** Current wind speed in m/s (hover to see current wind gust speed)